TimePST,TemperatureF,Dew PointF,Humidity,Sea Level PressureIn,VisibilityMPH,Wind Direction,Wind SpeedMPH,Gust SpeedMPH,PrecipitationIn,Events,Conditions,WindDirDegrees,DateUTC
12:55 AM,19.0,-9.9,27,30.45,10.0,Variable,4.6,-,N/A,,Clear,0,2013-01-15 08:55:00
1:55 AM,17.1,-11.0,28,30.47,10.0,Calm,Calm,-,N/A,,Clear,0,2013-01-15 09:55:00
2:55 AM,15.1,-11.9,29,30.48,10.0,NW,4.6,-,N/A,,Clear,320,2013-01-15 10:55:00
3:55 AM,15.1,-11.9,29,30.47,10.0,North,3.5,-,N/A,,Clear,360,2013-01-15 11:55:00
4:55 AM,15.1,-11.9,29,30.49,10.0,Calm,Calm,-,N/A,,Clear,0,2013-01-15 12:55:00
5:55 AM,16.0,-9.9,31,30.51,10.0,NNE,5.8,-,N/A,,Clear,30,2013-01-15 13:55:00
6:55 AM,16.0,-9.9,31,30.54,10.0,NNW,6.9,-,N/A,,Clear,330,2013-01-15 14:55:00
7:55 AM,21.9,-7.1,28,30.56,10.0,North,4.6,-,N/A,,Clear,360,2013-01-15 15:55:00
8:55 AM,32.0,-4.0,21,30.58,10.0,Calm,Calm,-,N/A,,Clear,0,2013-01-15 16:55:00
9:55 AM,36.0,-5.1,17,30.58,10.0,Calm,Calm,-,N/A,,Clear,0,2013-01-15 17:55:00
10:55 AM,41.0,-5.1,14,30.53,10.0,Calm,Calm,-,N/A,,Clear,0,2013-01-15 18:55:00
11:55 AM,44.1,-0.9,15,30.49,10.0,ENE,5.8,-,N/A,,Clear,70,2013-01-15 19:55:00
12:55 PM,46.0,3.9,18,30.46,10.0,Variable,4.6,-,N/A,,Clear,0,2013-01-15 20:55:00
1:55 PM,46.9,1.0,15,30.46,10.0,NNW,6.9,-,N/A,,Clear,340,2013-01-15 21:55:00
2:55 PM,46.9,1.0,15,30.46,10.0,WNW,4.6,-,N/A,,Clear,290,2013-01-15 22:55:00
3:45 PM,-9999,-9999,N/A,-9999,-9999.0,North,-9999.0,-,N/A,,Unknown,0,2013-01-15 23:45:00
3:55 PM,46.9,1.9,16,30.46,10.0,NNW,4.6,-,N/A,,Clear,330,2013-01-15 23:55:00
4:55 PM,45.0,1.9,17,30.46,10.0,Calm,Calm,-,N/A,,Clear,0,2013-01-16 00:55:00
5:55 PM,37.0,-0.0,21,30.48,10.0,WNW,5.8,-,N/A,,Clear,290,2013-01-16 01:55:00
6:55 PM,34.0,-0.0,24,30.51,10.0,WNW,8.1,-,N/A,,Clear,290,2013-01-16 02:55:00
7:55 PM,30.0,-0.9,27,30.51,10.0,NW,3.5,-,N/A,,Clear,310,2013-01-16 03:55:00
8:55 PM,28.9,-0.9,28,30.50,10.0,NW,5.8,-,N/A,,Clear,320,2013-01-16 04:55:00
9:55 PM,28.0,-2.0,27,30.51,10.0,Calm,Calm,-,N/A,,Clear,0,2013-01-16 05:55:00
10:55 PM,27.0,-2.0,29,30.50,10.0,NNE,6.9,-,N/A,,Clear,20,2013-01-16 06:55:00
11:55 PM,24.1,-2.9,31,30.50,10.0,NW,3.5,-,N/A,,Clear,320,2013-01-16 07:55:00